Overview Statistics Trail Chart Weather Telemetry Raw packets
 

This is the latest recevied weather packets stored in our database for station/object DM8MH-13. If no packets are shown the sender has not sent any weather packets the latest 10 day(s).

<< 1 2 3 4 5 6 7 >>
Time Temp. Humidity Pressure Rain* Wind** Luminosity Snow
1788650472 14.44° C 77% 1024.3 hPa 0 mm - 0 W/m² -
1788649871 14.44° C 77% 1024.2 hPa 0 mm - 0 W/m² -
1788649271 15° C 76% 1023.9 hPa 0 mm - 0 W/m² -
1788648672 15° C 75% 1023.9 hPa 0 mm - 0 W/m² -
1788648072 15.56° C 74% 1023.9 hPa 0 mm - 0 W/m² -
1788647472 15.56° C 74% 1023.8 hPa 0 mm - 0 W/m² -
1788646872 15.56° C 74% 1023.7 hPa 0 mm - 0 W/m² -
1788646271 15° C 74% 1023.4 hPa 0 mm - 0 W/m² -
1788645671 15° C 74% 1023.6 hPa 0 mm - 0 W/m² -
1788645071 15.56° C 73% 1023.7 hPa 0 mm - 0 W/m² -
1788644471 15.56° C 72% 1023.4 hPa 0 mm - 0 W/m² -
1788643871 16.11° C 72% 1023.3 hPa 0 mm - 0 W/m² -
1788643271 16.11° C 71% 1023.1 hPa 0 mm - 0 W/m² -
1788642671 16.67° C 70% 1023.2 hPa 0 mm - 0 W/m² -
1788642071 16.67° C 70% 1023.1 hPa 0 mm - 0 W/m² -
1788641471 16.67° C 70% 1023 hPa 0 mm - 0 W/m² -
1788640871 16.67° C 71% 1022.9 hPa 0 mm - 0 W/m² -
1788640271 16.67° C 71% 1023 hPa 0 mm - 0 W/m² -
1788639672 16.67° C 71% 1022.9 hPa 0 mm - 0 W/m² -
1788639070 16.67° C 70% 1022.7 hPa 0 mm - 0 W/m² -
1788638470 16.67° C 70% 1022.8 hPa 0 mm - 0 W/m² -
1788637871 17.22° C 69% 1022.6 hPa 0 mm - 0 W/m² -
1788637270 17.22° C 68% 1022.4 hPa 0 mm - 0 W/m² -
1788636672 17.78° C 68% 1022.3 hPa 0 mm - 0 W/m² -
1788636073 17.78° C 67% 1022.2 hPa 0 mm - 0 W/m² -

* Rain latest hour (hover to see other rain measurements)
** Current wind speed in m/s (hover to see current wind gust speed)